Sterling, IL

7:35 PM CST on November 11, 2019 (GMT -0600)
Whiteside County-Bittorf

Weather History for KSQI - September, 2019

Change the Weather History Date:

Wednesday, September 25, 2019

  Actual Average Record
Temperature  
Mean Temperature 70 °F -  
Max Temperature 80 °F 69 °F 93 °F (2017)
Min Temperature 62 °F 45 °F 35 °F (2001)
Cooling Degree Days 6    
Growing Degree Days 20 (Base 50)    
Moisture  
Dew Point 57 °F    
Average Humidity 71    
Maximum Humidity 96    
Minimum Humidity 38    
Precipitation  
Precipitation 0.00 in - - ()
Sea Level Pressure  
Sea Level Pressure 29.45 in    
Wind  
Wind Speed 7 mph ()    
Max Wind Speed 18 mph    
Max Gust Speed 23 mph    
Visibility 10.0 miles    
Events Rain    
Averages and records for this station are not official NWS values.
T = Trace of Precipitation, MM = Missing Value Source: Averaged Metar Reports

Daily Weather History Graph

Daily Weather History Graph

Search for Another Location

Airport or City:

Astronomy

Sep. 25, 2019 Rise Set
Actual Time 6:49 AM CDT 6:51 PM CDT
Civil Twilight 6:21 AM CDT 7:18 PM CDT
Nautical Twilight 5:48 AM CDT 7:51 PM CDT
Astronomical Twilight 5:15 AM CDT 8:24 PM CDT
Moon 2:38 AM CDT (9/25) 5:27 PM CDT (9/25)
Length of Visible Light 12h 57m
Length of Day
12h 02m
Waning Crescent, 14% of the Moon is Illuminated
Sep 25
Waning Crescent
Sep 28
New
Oct 5
First Quarter
Oct 13
Full
Oct 21
Last Quarter

Hourly Weather History & Observations

Time (CDT) Temp. Dew Point Humidity Pressure Visibility Wind Dir Wind Speed Gust Speed Precip Events Conditions
12:32 AM 64.4 °F 57.2 °F 77% 29.77 in 10.0 mi Calm Calm - N/A   Overcast
12:56 AM 64.9 °F 57.9 °F 78% 29.37 in 10.0 mi Variable 4.6 mph - N/A   Mostly Cloudy
1:56 AM 66.0 °F 57.0 °F 73% 29.36 in 10.0 mi Variable 3.5 mph - N/A   Overcast
2:56 AM 66.9 °F 57.9 °F 73% 29.33 in 10.0 mi Variable 3.5 mph - N/A   Overcast
3:54 AM 66.2 °F 59.0 °F 78% 29.73 in 10.0 mi Variable 6.9 mph 16.1 mph N/A Rain Light Rain
3:56 AM 66.0 °F 59.0 °F 78% 29.33 in 10.0 mi Variable 6.9 mph 16.1 mph N/A Rain Light Rain
4:56 AM 63.0 °F 60.1 °F 90% - 10.0 mi North - - N/A   Partly Cloudy
5:56 AM 62.1 °F 60.1 °F 93% 29.33 in 10.0 mi WSW 9.2 mph - N/A   Clear
6:28 AM 62.6 °F 60.8 °F 94% 29.73 in 10.0 mi WSW 4.6 mph - N/A   Mostly Cloudy
6:56 AM 62.1 °F 60.1 °F 93% 29.34 in 10.0 mi WSW 5.8 mph - N/A   Overcast
7:27 AM 62.6 °F 60.8 °F 94% 29.74 in 10.0 mi Calm Calm - N/A   Scattered Clouds
7:56 AM 62.1 °F 61.0 °F 96% 29.35 in 10.0 mi WSW 5.8 mph - N/A   Clear
8:56 AM 66.0 °F 62.1 °F 87% 29.36 in 10.0 mi WSW 12.7 mph - N/A   Clear
9:56 AM 71.1 °F 64.9 °F 81% 29.37 in 10.0 mi WSW 12.7 mph - N/A   Partly Cloudy
10:56 AM 73.9 °F 64.9 °F 73% 29.38 in 10.0 mi West 18.4 mph 21.9 mph N/A   Clear
11:56 AM 75.9 °F 63.0 °F 64% 29.38 in 10.0 mi West 13.8 mph - N/A   Clear
12:56 PM 78.1 °F 59.0 °F 52% 29.38 in 10.0 mi West 13.8 mph 19.6 mph N/A   Partly Cloudy
1:56 PM 79.0 °F 52.0 °F 39% 29.37 in 10.0 mi WNW 12.7 mph - N/A   Clear
2:56 PM 78.1 °F 54.0 °F 43% 29.37 in 10.0 mi NW 15.0 mph - N/A   Clear
3:56 PM 77.0 °F 52.0 °F 42% 29.38 in 10.0 mi West 18.4 mph 23.0 mph N/A   Clear
4:56 PM 75.0 °F 48.0 °F 38% 29.40 in 10.0 mi West 16.1 mph - N/A   Clear
5:56 PM 71.1 °F 53.1 °F 53% 29.42 in 10.0 mi WNW 8.1 mph - N/A   Clear
6:56 PM 66.9 °F 54.0 °F 63% 29.43 in 10.0 mi WNW 5.8 mph - N/A   Clear
7:56 PM 66.0 °F 54.0 °F 65% 29.47 in 10.0 mi West 8.1 mph - N/A   Overcast
8:56 PM 64.9 °F 55.0 °F 70% 29.48 in 10.0 mi West 8.1 mph - N/A   Overcast
9:56 PM 64.9 °F 54.0 °F 68% 29.49 in 10.0 mi West 11.5 mph - N/A   Overcast
10:56 PM 64.0 °F 54.0 °F 70% 29.51 in 10.0 mi West 9.2 mph - N/A   Overcast
11:56 PM 63.0 °F 54.0 °F 72% 29.52 in 10.0 mi West 12.7 mph - N/A   Overcast